This demonstration page uses our WeatherBlox Daily Observations layout. Learn more.

Left ArrowRight Arrow

39.12711, -84.51439

Hourly Observations for June 7, 2016

Temp ( °F °C ) Dew Point ( °F °C ) Humidity (%) Winds ( mph kmh ) Pressure ( in mb ) Visibility ( mi km ) Precip ( " mm )
12:53 am 00:53 Mostly Clear 72 22.2 53 11.7 52 52 WSW 14 22 29.67 1005 10 16 N/A
1:53 am 01:53 Clear 69 20.6 54 12.2 59 59 WSW 7 11 29.67 1005 10 16 N/A
2:53 am 02:53 Mostly Cloudy 69 20.6 54 12.2 59 59 W 5 7 29.67 1005 10 16 N/A
3:53 am 03:53 Partly Cloudy 64 17.8 55 12.8 73 73 SW 5 7 29.67 1005 10 16 N/A
4:53 am 04:53 Clear 60 15.6 56 13.3 86 86 N N/A 29.67 1005 10 16 N/A
5:53 am 05:53 Clear 58 14.4 56 13.3 93 93 N N/A 29.70 1006 10 16 N/A
6:07 am 06:07 Mostly Clear 59 15 55 13 88 88 N N/A 29.71 1006 10 16 N/A
6:53 am 06:53 Sunny 58 14.4 56 13.3 93 93 N N/A 29.71 1006 10 16 N/A
7:53 am 07:53 Mostly Sunny 65 18.3 57 13.9 76 76 N N/A 29.72 1007 10 16 N/A
8:53 am 08:53 Sunny 69 20.6 53 11.7 57 57 N 9 15 29.74 1007 10 16 N/A
9:53 am 09:53 Sunny 71 21.7 54 12.2 55 55 NNW 9 15 29.74 1007 10 16 N/A
10:53 am 10:53 Mostly Sunny 73 22.8 55 12.8 53 53 WNW 9 15 29.75 1007 10 16 N/A
11:53 am 11:53 Partly Cloudy 71 21.7 53 11.7 53 53 NW 9 15 29.76 1008 10 16 N/A
12:53 pm 12:53 Mostly Cloudy 74 23.3 53 11.7 48 48 undefined N/A 29.77 1008 10 16 N/A
1:53 pm 13:53 Mostly Cloudy 72 22.2 51 10.6 48 48 NNW 12 19 29.77 1008 10 16 N/A
2:53 pm 14:53 Mostly Cloudy 74 23.3 51 10.6 45 45 NW 16 26 29.78 1008 10 16 N/A
3:53 pm 15:53 Mostly Cloudy 74 23.3 50 10 43 43 WNW 13 20 29.79 1009 10 16 N/A
4:53 pm 16:53 Mostly Cloudy 72 22.2 50 10 46 46 WNW 8 13 29.79 1009 10 16 N/A
5:53 pm 17:53 Mostly Cloudy 74 23.3 51 10.6 45 45 WNW 9 15 29.80 1009 10 16 N/A
6:53 pm 18:53 Mostly Cloudy 72 22.2 51 10.6 48 48 NNW 9 15 29.80 1009 10 16 N/A
7:53 pm 19:53 Partly Cloudy 71 21.7 49 9.4 46 46 NW 13 20 29.82 1010 10 16 N/A
8:53 pm 20:53 Partly Cloudy 67 19.4 49 9.4 53 53 N 9 15 29.83 1010 10 16 N/A
9:53 pm 21:53 Clear 65 18.3 49 9.4 56 56 NNW 9 15 29.85 1011 10 16 N/A
10:53 pm 22:53 Clear 61 16.1 51 10.6 70 70 N N/A 29.87 1012 10 16 N/A
11:53 pm 23:53 Clear 56 13.3 52 11.1 87 87 N N/A 29.88 1012 10 16 N/A

Powered by AerisWeather